KT4FD Weather Reports


time (UTC)temp
C
wind
direction
speed
KPH
gust
KPH
rain 1hr
cm
rain 24hr
cm
rain mn
cm
humidity
%
barometer
mb
20260831210004 32 293 3.2 4.8 0.00 0.00 0.00 58 1020.6
20260831205004 32 293 3.2 4.8 0.00 0.00 0.00 57 1020.6
20260831204004 31 293 3.2 11.3 0.00 0.00 0.00 59 1020.8
20260831203004 31 293 4.8 11.3 0.00 0.00 0.00 61 1020.8
20260831181003 29 273 1.6 4.8 0.00 0.00 0.00 67 1022.0
20260831180003 29 273 1.6 4.8 0.00 0.00 0.00 69 1022.2
20260831175003 29 273 1.6 9.7 0.00 0.00 0.00 66 1022.2
20260831174003 29 273 1.6 4.8 0.00 0.00 0.00 67 1022.2
20260831173003 29 273 4.8 11.3 0.00 0.00 0.00 66 1022.4
20260831172004 29 273 3.2 4.8 0.00 0.00 0.00 70 1022.4
20260831171004 29 273 3.2 9.7 0.00 0.00 0.00 68 1022.6
20260831151003 25 355 0.0 0.0 0.00 0.00 0.00 84 1023.4
20260831150003 25 355 0.0 0.0 0.00 0.00 0.00 85 1023.4
20260831145003 25 355 0.0 0.0 0.00 0.00 0.00 85 1023.4
20260831144004 25 355 0.0 4.8 0.00 0.00 0.00 86 1023.5
20260831143003 25 355 0.0 4.8 0.00 0.00 0.00 85 1023.3
20260831142003 25 355 1.6 8.0 0.00 0.00 0.00 86 1023.3
20260831141004 24 355 0.0 4.8 0.00 0.00 0.00 86 1023.1
20260831140003 23 355 0.0 3.2 0.00 0.00 0.00 88 1023.1
20260831135004 23 355 0.0 0.0 0.00 0.00 0.00 90 1023.1
20260831134003 22 355 0.0 0.0 0.00 0.00 0.00 91 1023.1
20260831133004 22 355 0.0 1.6 0.00 0.00 0.00 91 1023.2
20260831132003 22 355 0.0 3.2 0.00 0.00 0.00 90 1023.2
20260831131004 21 350 0.0 1.6 0.00 0.00 0.00 91 1023.4
20260831130004 21 351 0.0 3.2 0.00 0.00 0.00 91 1023.4
20260831125004 20 351 0.0 1.6 0.00 0.00 0.00 91 1023.1
20260831124004 20 351 0.0 0.0 0.00 0.00 0.00 91 1023.1
20260831123003 20 351 0.0 0.0 0.00 0.00 0.00 91 1023.0
20260831122004 20 351 0.0 0.0 0.00 0.00 0.00 91 1022.9
20260831111004 19 351 0.0 0.0 0.00 0.00 0.00 91 1022.5
20260831110003 19 351 0.0 1.6 0.00 0.00 0.00 91 1022.4
20260831105004 19 351 0.0 0.0 0.00 0.00 0.00 91 1022.1
20260831104003 19 351 0.0 0.0 0.00 0.00 0.00 92 1022.1
20260831103003 19 351 0.0 0.0 0.00 0.00 0.00 91 1022.1
20260831102004 20 351 0.0 0.0 0.00 0.00 0.00 91 1022.0
20260831091003 20 350 0.0 0.0 0.00 0.00 0.00 91 1022.0
20260831090004 20 350 0.0 0.0 0.00 0.00 0.00 92 1022.0
20260831085004 20 350 0.0 0.0 0.00 0.00 0.00 91 1021.8
20260831084004 20 351 0.0 0.0 0.00 0.00 0.00 91 1021.9
20260831083003 20 351 0.0 0.0 0.00 0.00 0.00 91 1021.7
20260831082004 20 351 0.0 0.0 0.00 0.00 0.00 91 1021.6
20260831020003 22 350 0.0 0.0 0.00 0.00 0.00 88 1022.1
20260831000003 27 351 0.0 0.0 0.00 0.00 0.00 76 1020.6
20260830235002 27 351 0.0 0.0 0.00 0.00 0.00 73 1020.6
20260830234002 28 351 0.0 0.0 0.00 0.00 0.00 71 1020.6
20260830233002 28 351 0.0 0.0 0.00 0.00 0.00 71 1020.6
20260830232002 29 351 0.0 0.0 0.00 0.00 0.00 69 1020.6
20260830231003 29 351 0.0 3.2 0.00 0.00 0.00 69 1020.6
20260830230002 29 351 0.0 3.2 0.00 0.00 0.00 67 1020.7
20260830225002 30 350 1.6 4.8 0.00 0.00 0.00 64 1020.8
20260830224002 30 350 0.0 4.8 0.00 0.00 0.00 65 1020.8
20260830223003 30 350 3.2 4.8 0.00 0.00 0.00 66 1020.7
20260830222002 30 350 1.6 8.0 0.00 0.00 0.00 65 1020.7
20260830221002 30 348 0.0 4.8 0.00 0.00 0.00 64 1020.7
20260830220003 30 348 1.6 4.8 0.00 0.00 0.00 65 1020.8
20260830215003 30 348 3.2 9.7 0.00 0.00 0.00 64 1020.7